Lapse_Rate
-2.0 -2.2 -2.5 -2.7 -2.8 -2.9 -3.0 -3.0 -3.0 -2.9 -2.9 -2.7 -2.5 -2.2 -2.0 -1.9 -1.9 3.3 6.3 7.7 7.6 5.4 3.7 9.5 9.3 9.1 9.1 8.4 8.5 8.4 6.5 6.5 6.5 6.5 6.5 7.0 6.5 7.5 7.9 7.4 7.6 7.8 3.5 1.2 6.0
-2.0 -2.3 -2.7 -3.0 -3.2 -3.3 -3.4 -3.3 -3.3 -3.1 -3.0 -3.0 -2.7 -2.4 -2.1 -2.0 4.1 7.6 8.3 6.1 4.5 4.4 8.3 8.8 8.3 8.6 7.9 7.8 7.9 6.9 6.5 6.5 6.5 6.5 6.5 6.7 6.8 7.0 6.9 6.9 7.1 7.5 6.5 3.5 8.7
-2.2 -2.5 -2.8 -3.2 -3.5 -3.7 -3.9 -3.8 -3.7 -3.5 -3.3 -3.2 -2.9 -2.5 -2.2 -1.0 7.0 8.3 4.2 4.8 4.3 5.2 9.6 9.3 8.9 8.4 7.4 7.7 7.4 6.9 6.5 6.5 6.8 7.1 7.2 6.8 6.8 7.4 6.8 6.5 7.1 7.0 7.6 8.3 8.5
-2.7 -2.8 -3.1 -3.5 -3.8 -4.0 -4.2 -4.1 -4.0 -3.8 -3.6 -3.4 -3.3 -2.9 -2.3 3.7 6.5 7.1 1.4 2.9 4.3 7.4 9.4 8.8 8.4 7.4 6.8 6.5 7.4 6.5 6.9 7.0 7.1 7.3 7.1 6.6 7.3 6.8 7.0 7.0 7.8 7.5 7.9 8.2 8.1
-3.0 -3.1 -3.5 -3.8 -4.2 -4.4 -4.5 -4.4 -4.3 -4.1 -4.0 -3.8 -3.5 -3.0 0.5 7.5 8.0 4.5 1.3 2.9 6.8 7.6 8.9 8.4 7.8 7.4 6.5 6.8 7.0 6.5 6.6 7.1 7.4 7.3 7.3 7.4 6.8 6.8 6.9 7.8 8.2 7.1 6.7 8.4 8.1
-3.3 -3.5 -3.9 -4.3 -4.5 -4.7 -4.7 -4.6 -4.6 -4.5 -4.5 -4.2 -3.6 -2.9 4.5 6.9 9.3 6.3 7.7 7.0 9.5 9.3 8.7 8.7 8.0 8.1 7.2 6.8 6.6 7.0 6.9 6.9 7.2 7.1 7.2 6.7 6.8 7.0 7.2 7.9 7.8 7.8 7.9 8.0 8.1
-3.6 -4.0 -4.2 -4.5 -4.7 -4.9 -4.8 -4.6 -4.6 -4.5 -4.1 -3.8 -3.3 1.7 8.4 8.0 9.9 9.0 9.9 9.2 9.6 9.3 8.5 8.9 8.8 7.9 7.7 6.6 7.6 7.2 6.5 6.5 6.7 6.9 6.6 7.2 6.5 6.5 7.4 7.7 7.5 7.6 7.8 7.9 8.0
-3.9 -4.3 -4.5 -4.7 -4.8 -4.9 -4.7 -4.6 -4.5 -3.5 -3.6 -3.2 -2.7 4.9 7.7 9.7 9.7 9.7 9.9 9.4 9.8 9.7 9.2 9.2 9.1 8.2 7.6 7.8 7.1 6.5 6.5 6.5 6.5 6.6 6.9 6.8 6.5 6.5 7.5 7.3 7.2 7.4 7.7 7.8 7.9
-3.9 -4.3 -4.6 -4.9 -4.9 -4.9 -4.6 -4.3 -2.4 -3.0 -2.3 -2.4 2.6 6.0 7.4 6.3 8.9 9.6 9.7 8.9 9.2 9.3 9.3 9.3 8.7 7.6 7.5 6.5 6.5 6.5 6.5 6.5 6.5 6.6 6.5 6.5 6.5 6.5 7.4 7.2 7.0 7.2 7.5 7.7 7.8
-3.7 -4.2 -4.5 -4.8 -4.8 -4.8 -4.5 -4.0 -2.4 -2.2 1.0 5.0 7.7 7.9 8.4 7.9 8.9 9.3 9.7 9.4 8.6 8.5 8.1 7.9 7.6 6.5 6.5 6.5 6.5 6.5 6.5 6.5 6.5 6.5 6.5 6.5 6.5 6.5 7.1 7.1 6.9 7.2 7.4 7.5 7.7
-3.3 -3.7 -4.2 -4.2 -4.2 -4.3 -2.1 4.6 7.4 7.6 8.7 7.8 7.7 7.7 8.1 8.9 9.4 8.8 9.3 8.8 8.5 7.8 6.5 7.2 6.5 6.5 6.5 6.5 6.5 6.5 6.5 6.5 6.5 6.5 6.5 6.5 6.5 6.5 6.8 7.0 6.8 7.0 7.2 7.3 7.4
-3.1 -3.4 -3.5 -3.7 -3.8 -4.2 -0.7 8.4 8.6 8.9 7.1 8.5 8.5 8.5 8.8 8.9 7.6 8.3 9.3 7.6 7.2 6.5 6.7 6.5 6.5 6.5 6.5 6.5 6.5 6.5 6.5 6.5 6.5 6.5 6.5 6.5 6.5 6.5 6.5 6.6 6.9 7.0 7.1 7.3 7.5
-3.5 -3.4 -3.4 -3.8 -3.7 -0.1 8.6 9.0 10.1 9.7 7.1 7.5 8.3 8.0 8.2 8.6 7.5 7.6 8.4 7.8 6.7 6.5 6.5 6.5 6.5 6.6 6.5 6.5 6.5 6.5 6.5 6.5 6.5 6.5 6.5 6.5 6.5 6.5 6.5 6.8 7.1 7.3 7.4 7.6 7.6
-3.7 -3.7 -3.5 -4.9 2.3 9.4 8.8 9.8 10.0 9.7 6.5 6.5 6.9 7.7 8.3 8.3 6.9 8.7 8.7 7.8 6.7 6.5 6.5 6.5 6.6 6.5 6.5 6.5 6.5 6.5 6.5 6.5 6.5 6.5 6.5 6.5 6.5 6.5 6.5 6.5 6.5 6.9 7.2 7.5 7.6
-3.6 -3.9 -4.0 -4.3 6.1 8.8 9.4 10.1 10.0 8.9 6.5 6.5 6.8 8.9 8.3 7.2 7.3 7.5 8.8 7.8 6.5 6.5 6.5 6.5 6.5 6.5 6.5 6.5 6.5 6.5 6.5 6.5 6.5 6.5 6.5 6.5 6.5 6.5 6.5 6.5 6.5 6.6 7.1 7.5 7.8
-3.6 -3.7 -4.5 5.4 7.2 9.6 9.9 10.0 9.1 6.5 6.5 6.5 6.9 6.6 6.6 7.1 7.0 7.6 7.5 8.2 7.7 6.5 6.5 6.5 7.2 6.5 6.5 6.5 6.5 6.5 6.5 6.5 6.5 6.5 6.5 6.5 6.5 6.5 6.5 6.5 6.5 6.7 7.1 7.4 7.8
-4.0 -4.1 -3.5 5.4 8.8 9.9 10.1 8.7 6.5 6.5 6.5 6.5 6.5 6.5 6.5 6.5 6.5 6.5 6.5 6.5 6.5 6.5 6.5 6.5 6.5 6.5 6.7 6.5 6.5 6.5 6.5 6.5 6.5 6.5 6.5 6.5 6.5 6.5 6.5 6.5 6.5 6.5 6.9 7.5 7.8
-5.0 -4.4 3.7 7.8 9.8 9.9 9.2 6.6 6.5 6.5 6.5 6.5 6.5 6.5 6.5 6.5 6.5 6.5 6.5 6.5 6.5 6.5 6.5 6.5 6.5 6.5 6.5 6.5 6.5 6.5 6.5 6.5 6.5 6.5 6.5 6.5 6.5 6.5 6.5 6.7 6.9 7.2 7.4 7.5 7.7
-3.8 6.8 9.2 9.3 9.8 9.8 7.8 6.5 6.5 6.5 6.5 6.5 6.5 6.5 6.5 6.5 6.5 6.5 6.5 6.5 6.5 6.5 6.5 6.5 6.5 6.5 6.5 6.5 6.5 6.5 6.5 6.5 6.5 6.5 6.5 6.5 6.5 6.5 6.5 6.5 6.4 6.8 7.2 7.2 7.5
1.4 6.5 8.9 9.7 9.8 8.9 6.7 6.5 6.5 6.6 6.6 6.5 6.5 6.5 6.5 6.5 6.5 6.5 6.5 6.5 6.5 6.5 6.7 6.5 6.5 6.5 6.5 6.7 6.6 6.5 6.5 6.5 6.5 6.5 6.5 6.5 6.5 6.5 6.5 6.5 6.5 6.5 6.7 7.2 7.6
4.7 8.0 9.2 9.8 9.7 7.8 6.5 6.5 6.5 7.2 7.1 6.5 6.5 6.5 6.5 6.5 6.5 6.5 6.5 6.5 6.5 6.5 6.7 6.5 6.5 6.5 6.5 6.5 6.5 6.5 6.5 6.5 6.5 6.5 6.5 6.5 6.5 6.5 6.5 6.5 6.5 6.7 6.6 7.3 7.5
8.1 6.7 9.4 9.8 7.0 7.0 6.5 6.5 2.6 6.7 7.3 6.6 6.6 6.5 6.5 6.5 6.5 6.5 6.5 6.5 7.1 6.8 6.5 6.5 6.5 6.5 6.5 6.5 6.5 6.5 6.5 6.5 6.5 6.5 6.5 6.5 6.5 6.5 6.5 6.7 6.9 6.9 6.5 7.5 7.7
8.1 8.0 9.4 9.1 6.5 6.5 6.7 6.5 6.9 6.5 6.5 6.5 6.5 6.5 6.5 6.5 6.5 6.5 6.5 6.9 7.1 6.6 6.5 6.5 6.5 6.5 6.5 6.5 6.5 6.5 6.5 6.5 6.5 6.5 6.5 6.5 6.5 6.5 6.6 6.7 6.8 6.6 7.2 7.5 7.9
8.3 6.5 7.8 8.2 7.7 6.6 6.5 6.5 6.5 7.3 6.8 6.9 6.6 6.7 6.5 6.5 6.5 6.5 6.5 6.5 7.1 6.9 5.6 6.5 6.5 6.5 6.5 6.5 6.5 6.5 6.5 6.5 6.5 6.5 6.5 6.5 6.5 6.5 6.5 6.5 6.7 6.9 6.9 7.4 7.7
8.3 6.9 7.6 6.5 6.7 6.8 6.7 6.5 6.5 6.5 7.0 7.1 6.5 6.5 6.5 6.5 6.5 6.5 6.5 6.5 6.7 5.2 6.7 6.5 6.5 6.5 6.5 6.5 6.5 6.5 6.5 6.5 6.5 6.5 6.5 6.5 6.5 6.5 6.5 6.5 6.8 6.9 6.6 7.4 7.5
7.8 7.5 8.0 7.4 7.3 6.7 6.6 6.5 6.5 6.5 6.5 6.5 6.5 6.5 6.5 6.5 6.5 6.5 6.5 6.5 6.5 6.5 6.5 6.5 6.5 6.5 6.5 6.5 6.5 6.5 6.5 6.5 6.5 6.5 6.5 6.5 6.5 6.5 6.8 7.1 6.8 7.3 7.2 7.3 7.5
9.1 9.1 8.3 6.7 6.8 6.5 6.5 6.5 6.5 6.7 7.0 7.2 6.7 6.5 6.5 6.5 7.2 7.3 7.3 7.0 6.7 6.5 6.5 6.5 6.5 6.5 6.5 6.5 6.5 6.5 6.5 6.5 6.5 6.5 6.5 6.5 6.5 6.5 6.5 6.6 6.8 6.9 7.3 7.3 7.5
Wind_Speed
22 21 19 18 17 15 14 12 11 11 11 11 10 9 9 11 14 7 11 7 11 21 7 10 13 15 13 15 16 17 11 14 19 20 15 9 4 9 3 10 5 8 18 17 19
22 21 20 19 17 16 15 13 12 11 11 10 10 8 7 7 11 18 15 13 21 18 13 14 14 13 12 13 14 13 12 18 22 18 18 4 6 10 3 8 13 9 30 27 21
23 22 22 20 18 16 15 14 13 12 11 10 9 7 6 7 8 7 25 19 19 18 16 14 12 12 14 15 16 15 16 21 20 13 13 15 7 7 10 12 14 15 22 20 19
25 24 23 21 19 17 16 15 13 12 11 10 9 7 5 7 3 7 13 19 18 15 14 15 13 14 13 15 17 17 19 18 22 13 11 12 13 14 11 15 7 21 17 18 14
25 25 24 23 20 18 17 15 14 12 11 10 9 5 4 8 8 13 16 13 12 11 15 13 14 13 15 16 15 15 18 17 16 12 16 12 16 17 12 19 11 21 24 21 10
27 26 24 23 21 19 17 15 13 12 10 9 7 5 6 12 15 18 15 14 13 14 16 15 11 12 16 14 16 14 12 16 20 13 16 16 18 15 15 21 13 3 6 11 13
29 28 26 24 22 19 17 14 12 11 9 8 7 5 11 14 1 17 14 14 14 15 14 11 14 10 11 16 12 15 17 15 17 15 17 15 20 19 18 14 19 7 5 11 11
31 29 27 24 21 19 16 13 11 6 7 7 7 7 7 2 3 12 15 14 14 13 14 8 7 12 15 15 19 12 15 17 17 21 18 16 20 18 17 12 20 11 10 10 10
32 30 28 24 20 16 14 12 4 2 3 7 6 8 10 5 10 12 15 14 14 11 12 7 9 12 14 15 13 14 14 19 20 20 19 19 20 18 15 16 16 10 10 10 9
34 32 28 24 19 15 11 6 1 5 5 8 11 8 8 10 10 12 12 14 10 9 11 10 8 13 14 13 14 16 17 15 17 16 11 14 17 16 18 19 18 15 10 11 9
36 33 30 24 18 13 6 3 4 6 11 11 7 11 4 3 3 8 13 12 14 9 14 15 12 14 17 18 20 17 20 18 20 16 12 14 15 19 15 19 11 7 9 12 6
37 36 34 29 19 11 6 6 7 7 10 18 18 17 12 5 10 11 12 13 16 15 16 14 18 16 18 19 20 19 17 17 18 21 19 17 14 18 18 11 9 12 7 6 11
37 37 36 33 29 4 6 7 7 8 7 10 9 10 6 11 14 12 14 16 16 18 18 18 18 19 23 14 17 18 16 17 21 22 20 18 20 17 23 10 9 3 7 7 5
38 37 36 37 5 9 2 9 8 4 5 12 9 6 7 7 9 14 14 13 17 20 18 17 19 21 20 16 15 18 20 18 21 19 15 18 15 18 20 15 13 12 9 9 12
39 37 38 10 10 5 10 11 9 4 5 13 11 6 1 10 3 12 12 16 17 19 18 20 20 20 19 20 18 21 16 19 20 19 17 24 14 14 17 21 19 16 16 16 14
41 38 30 1 7 11 14 10 5 5 5 6 6 5 13 12 10 6 5 14 13 19 20 21 22 23 22 19 17 17 20 19 18 17 17 20 18 18 18 20 22 20 18 16 14
44 40 15 11 6 14 11 7 6 6 3 5 2 1 7 8 6 9 11 12 12 13 15 20 22 22 22 22 20 17 18 12 16 15 16 19 20 19 17 17 26 20 16 16 16
49 44 7 8 11 11 8 7 8 10 1 6 2 7 11 12 10 13 8 14 14 18 15 14 16 13 7 15 13 20 14 5 9 16 16 18 19 3 15 16 25 25 18 13 13
43 8 7 6 8 7 7 7 10 9 6 6 9 12 15 15 8 12 13 12 14 11 4 9 16 11 8 9 11 10 13 14 6 19 16 19 18 1 6 2 12 14 19 13 13
11 6 2 4 8 6 6 12 20 2 5 8 10 10 13 14 10 11 11 9 9 6 3 8 17 11 5 7 11 10 8 8 3 3 6 13 10 7 20 9 18 12 5 11 11
4 6 6 9 7 7 9 15 6 9 4 6 10 14 15 13 13 16 14 14 2 2 5 6 9 18 17 14 15 10 6 3 3 5 4 7 4 13 21 16 15 18 4 5 4
7 6 9 7 7 7 11 3 4 8 9 7 8 12 14 16 17 16 14 14 7 2 6 2 4 11 14 15 16 2 4 1 4 2 3 2 2 4 11 14 14 13 15 17 10
8 8 4 5 5 9 14 9 11 11 12 9 11 10 11 15 15 13 12 3 3 2 4 7 5 9 14 17 7 6 6 10 3 3 8 4 5 3 9 6 8 7 15 12 7
5 5 6 7 4 7 12 13 14 14 15 9 15 17 16 16 14 12 15 5 5 2 9 5 9 12 12 16 6 7 13 9 13 8 9 11 14 7 7 10 10 15 17 22 15
4 5 6 6 10 16 14 14 19 19 19 13 12 13 16 17 16 17 18 17 9 11 5 5 11 13 15 17 16 15 12 13 17 17 15 15 18 12 13 10 6 11 12 16 7
6 5 9 13 16 16 12 14 18 17 17 15 15 14 17 18 16 18 18 16 15 16 13 11 10 12 16 17 15 16 18 19 19 19 22 19 18 13 9 14 14 13 8 5 6
9 10 7 8 14 14 13 15 13 16 13 12 14 16 17 12 13 16 14 12 10 9 13 11 11 11 14 17 17 13 17 14 17 19 14 16 15 1 2 1 6 7 7 8 9
Wind_Direction
356 352 348 344 341 337 331 325 319 312 306 302 301 300 301 305 299 244 254 247 186 175 217 196 218 233 239 247 242 246 260 262 265 265 279 162 152 263 288 310 44 76 126 180 233
353 348 345 342 338 333 327 321 313 305 297 293 291 290 293 303 274 266 240 139 145 163 197 217 209 219 231 239 238 231 250 251 259 277 334 78 63 304 176 256 265 145 142 177 169
351 347 344 340 335 329 322 316 307 298 290 284 282 281 278 281 277 234 148 149 159 175 217 219 229 218 235 237 231 229 244 266 274 338 321 335 353 306 281 277 234 209 155 149 157
348 344 341 336 331 326 320 312 302 292 282 277 273 270 269 247 328 119 142 153 167 196 230 247 238 233 240 239 234 238 252 259 274 303 302 286 287 280 284 269 6 21 130 141 162
344 341 337 333 329 324 316 309 300 287 273 265 260 250 240 230 254 137 146 143 172 204 233 230 228 231 236 245 238 244 252 265 270 267 280 281 273 275 288 269 279 115 139 200 159
341 337 335 331 327 322 315 306 294 280 265 253 234 196 245 257 112 148 165 166 193 204 228 228 230 227 271 289 270 254 246 255 269 259 263 254 263 262 261 266 275 220 168 149 158
341 337 334 329 326 323 318 310 297 273 246 232 209 225 262 253 139 156 189 183 213 211 230 231 268 303 265 267 263 272 270 271 264 262 257 256 255 249 256 246 257 178 253 270 158
341 337 334 330 327 323 320 316 310 261 219 213 200 231 260 134 241 175 184 198 215 225 252 262 269 277 280 282 286 266 266 264 259 242 233 246 259 247 235 225 258 213 199 244 169
342 339 335 332 329 323 321 319 329 168 174 176 208 225 257 112 221 212 195 211 213 231 241 283 295 260 262 253 261 255 255 256 257 246 230 212 248 257 261 225 242 200 233 219 213
344 340 338 335 334 328 321 308 138 161 217 202 267 243 247 242 172 213 211 225 214 226 234 229 251 245 245 251 249 258 246 246 245 274 188 233 248 243 268 259 201 230 203 241 212
344 342 340 338 341 337 308 193 206 205 219 246 279 239 139 149 113 220 199 212 224 219 231 229 243 244 250 245 249 263 276 292 293 299 259 233 235 264 241 265 178 179 216 246 87
343 343 342 337 336 325 273 274 26 329 289 255 247 252 274 236 223 218 191 210 224 227 220 241 238 249 266 272 278 275 284 283 276 282 285 275 248 249 249 224 209 223 209 214 106
344 342 341 332 324 270 261 10 321 325 268 245 219 229 212 223 238 244 181 215 226 228 246 245 251 248 238 251 268 277 265 274 278 287 274 256 263 253 267 174 170 122 166 179 165
343 340 337 331 311 320 348 344 321 7 272 180 192 180 187 226 222 231 188 220 230 250 240 251 257 252 268 242 246 272 283 250 264 267 270 272 249 245 244 183 187 175 152 162 125
340 337 332 331 301 345 336 329 351 265 271 163 134 101 235 231 78 189 239 204 242 247 246 262 270 258 252 256 281 275 269 284 280 279 249 259 270 254 252 190 185 183 179 172 163
336 330 334 225 242 302 326 325 266 237 238 141 139 204 195 207 243 161 214 238 260 249 259 273 280 278 283 288 263 263 260 262 278 265 263 249 251 263 254 211 177 179 174 156 150
333 321 319 305 309 332 325 279 245 243 121 164 170 224 292 284 218 240 256 211 235 247 248 255 255 254 259 260 270 264 276 257 251 243 247 249 251 249 344 300 165 168 149 170 154
330 313 218 238 295 334 305 264 254 299 22 100 317 269 262 273 262 269 249 270 244 231 251 280 288 319 308 281 271 289 298 332 296 288 277 260 260 306 17 10 152 151 148 171 162
326 315 242 193 332 327 290 247 245 344 20 358 319 279 264 251 208 290 263 263 286 18 252 287 277 9 11 351 343 309 269 308 324 283 296 287 286 111 159 70 123 169 159 150 108
322 293 1 355 332 303 271 259 291 62 359 307 281 303 290 297 224 206 263 288 263 160 254 288 295 284 283 241 263 254 352 318 286 360 247 252 305 3 5 273 139 135 154 128 126
262 298 78 338 305 265 253 269 331 72 32 310 288 285 290 283 288 292 296 286 167 256 194 280 288 284 292 274 303 301 278 340 287 286 303 333 42 353 1 344 8 2 82 75 115
310 304 9 347 292 238 251 15 352 312 302 247 282 281 282 292 293 286 276 278 66 11 278 45 317 291 283 307 308 287 293 80 268 233 163 137 291 33 37 358 19 17 337 336 14
310 292 165 303 318 337 346 327 319 293 286 277 272 266 281 283 286 276 279 257 106 267 23 352 244 276 273 258 36 353 291 224 194 64 255 279 246 222 351 48 4 344 300 302 348
289 313 358 329 189 338 339 313 298 301 289 269 291 287 283 277 264 269 272 243 176 96 69 30 278 264 268 285 162 221 221 240 193 208 254 227 266 235 262 277 225 211 225 228 198
270 337 358 300 318 331 304 292 289 288 285 266 258 275 269 270 263 265 264 247 182 143 181 191 250 262 267 271 270 278 281 261 227 231 242 270 282 252 235 222 244 214 228 279 320
331 344 338 300 286 286 282 279 281 286 294 288 291 285 279 277 269 266 276 276 257 180 199 205 244 270 274 272 278 271 267 261 257 272 276 270 262 261 234 205 204 235 270 287 326
357 335 304 288 293 285 279 279 302 308 306 296 293 277 277 299 343 324 315 312 313 288 191 221 240 229 258 280 287 271 271 268 278 256 263 266 279 251 6 52 38 16 3 330 320